Tracking 19485 objects as of 21-Jan-2019
HD Live streaming from Space Station
objects crossing your sky now

AMC-11 (GE-11)

Track AMC-11 (GE-11) now!
AMC-11 (GE-11) is classified as:


NORAD ID: 28252
Int'l Code: 2004-017A
Perigee: 35,781.3 km
Apogee: 35,806.2 km
Inclination: 0.0 °
Period: 1,436.1 minutes
Semi major axis: 42164 km
RCS: 21.9479 m2 (large)
Launch date: May 19, 2004
Source: SOCIETE EUROPEENNE DES SATELLITES (SES)
Launch site: AIR FORCE EASTERN TEST RANGE (AFETR)

24 C-band transponders.
aabbcc
Your satellite tracking list
Your tracking list is empty




NASA's NSSDC Master Catalog

Two Line Element Set (TLE):
1 28252U 04017A   19020.75670528 +.00000067 +00000-0 +00000-0 0  9996
2 28252 000.0147 004.1415 0002955 299.1630 317.9219 01.00271867053584
Source of the keplerian elements: AFSPC